• In Russia
  • List of Countries
  • For 7 days
  • Water Temperature
  • Satellite Maps
  • Weather Map
  • Weather Widgets
  • user-avatar
    Login

    Hourly Weather Canberra

    Today, 21 August, Monday

    Time Temperature Precipitation Wind Pressure Humidity
    00:00 +3°C° 0 mm 1 mps 711 mmHg 91%
    01:00 +2°C° 0 mm 0 mps 710 mmHg 91%
    02:00 +4°C° 0 mm 1 mps 710 mmHg 90%
    03:00 +4°C° 0 mm 1 mps 710 mmHg 89%
    04:00 +4°C° 0 mm 1 mps 710 mmHg 88%
    05:00 +4°C° 0 mm 1 mps 710 mmHg 86%
    06:00 +4°C° 0 mm 1 mps 709 mmHg 84%
    07:00 +4°C° 0 mm 1 mps 709 mmHg 83%
    08:00 +6°C° 0 mm 1 mps 709 mmHg 75%
    09:00 +6°C° 0 mm 2 mps 709 mmHg 67%
    10:00 +8°C° 0 mm 3 mps 710 mmHg 60%
    11:00 +8°C° 0 mm 3 mps 709 mmHg 58%
    12:00 +9°C° 0 mm 3 mps 709 mmHg 56%
    13:00 +8°C° 0 mm 4 mps 708 mmHg 55%
    14:00 +9°C° 0.1 mm 3 mps 708 mmHg 58%
    15:00 +8°C° 0.1 mm 3 mps 708 mmHg 62%
    16:00 +8°C° 0.1 mm 2 mps 708 mmHg 65%
    17:00 +7°C° 0.1 mm 2 mps 708 mmHg 70%
    18:00 +6°C° 0.1 mm 2 mps 708 mmHg 75%
    19:00 +6°C° 0.1 mm 1 mps 709 mmHg 80%
    20:00 +5°C° 0.1 mm 1 mps 709 mmHg 83%
    21:00 +5°C° 0.1 mm 1 mps 709 mmHg 85%
    22:00 +5°C° 0.1 mm 1 mps 709 mmHg 88%
    23:00 +4°C° 0 mm 1 mps 709 mmHg 89%

    Tomorrow, 22 August, Tuesday

    Time Temperature Precipitation Wind Pressure Humidity
    00:00 +4°C° 0 mm 1 mps 709 mmHg 91%
    01:00 +3°C° 0 mm 1 mps 708 mmHg 92%
    02:00 +3°C° 0 mm 1 mps 708 mmHg 93%
    03:00 +3°C° 0 mm 1 mps 708 mmHg 93%
    04:00 +3°C° 0 mm 1 mps 708 mmHg 93%
    05:00 +3°C° 0 mm 1 mps 709 mmHg 92%
    06:00 +3°C° 0 mm 1 mps 709 mmHg 91%
    07:00 +3°C° 0 mm 1 mps 709 mmHg 90%
    08:00 +6°C° 0 mm 1 mps 710 mmHg 78%
    09:00 +9°C° 0 mm 1 mps 710 mmHg 67%
    10:00 +13°C° 0 mm 1 mps 711 mmHg 55%
    11:00 +14°C° 0 mm 1 mps 710 mmHg 51%
    12:00 +15°C° 0 mm 1 mps 710 mmHg 46%
    13:00 +16°C° 0 mm 1 mps 710 mmHg 42%
    14:00 +16°C° 0 mm 1 mps 710 mmHg 45%
    15:00 +16°C° 0 mm 2 mps 710 mmHg 47%
    16:00 +15°C° 0 mm 2 mps 710 mmHg 50%
    17:00 +13°C° 0 mm 2 mps 710 mmHg 62%
    18:00 +10°C° 0 mm 1 mps 710 mmHg 73%
    19:00 +7°C° 0 mm 1 mps 711 mmHg 85%
    20:00 +7°C° 0 mm 1 mps 711 mmHg 87%
    21:00 +6°C° 0 mm 1 mps 711 mmHg 89%
    22:00 +6°C° 0 mm 1 mps 711 mmHg 91%
    23:00 +5°C° 0 mm 1 mps 711 mmHg 91%

    Day after tomorrow, 23 August, Wednesday

    Time Temperature Precipitation Wind Pressure Humidity
    00:00 +5°C° 0 mm 1 mps 711 mmHg 91%
    01:00 +5°C° 0 mm 1 mps 711 mmHg 92%
    02:00 +4°C° 0 mm 1 mps 711 mmHg 92%
    03:00 +4°C° 0 mm 1 mps 711 mmHg 92%
    04:00 +4°C° 0 mm 1 mps 710 mmHg 92%
    05:00 +4°C° 0 mm 1 mps 711 mmHg 92%
    06:00 +4°C° 0 mm 1 mps 711 mmHg 91%
    07:00 +4°C° 0 mm 1 mps 711 mmHg 91%
    08:00 +7°C° 0 mm 1 mps 711 mmHg 78%
    09:00 +9°C° 0 mm 2 mps 711 mmHg 66%
    10:00 +13°C° 0 mm 2 mps 711 mmHg 53%
    11:00 +14°C° 0 mm 2 mps 711 mmHg 50%
    12:00 +14°C° 0 mm 3 mps 710 mmHg 47%
    13:00 +15°C° 0 mm 4 mps 710 mmHg 44%
    14:00 +14°C° 0 mm 4 mps 710 mmHg 48%
    15:00 +14°C° 0 mm 4 mps 709 mmHg 51%
    16:00 +13°C° 0 mm 4 mps 709 mmHg 54%
    17:00 +11°C° 0 mm 4 mps 709 mmHg 64%
    18:00 +9°C° 0 mm 3 mps 710 mmHg 74%
    19:00 +7°C° 0 mm 3 mps 710 mmHg 84%
    20:00 +5°C° 0 mm 3 mps 710 mmHg 86%
    21:00 +6°C° 0 mm 2 mps 710 mmHg 88%
    22:00 +5°C° 0 mm 2 mps 710 mmHg 90%
    23:00 +5°C° 0 mm 2 mps 710 mmHg 91%

    24 August, Thursday

    Time Temperature Precipitation Wind Pressure Humidity
    00:00 +5°C° 0 mm 2 mps 710 mmHg 92%
    01:00 +4°C° 0 mm 2 mps 710 mmHg 93%
    02:00 +4°C° 0 mm 2 mps 710 mmHg 93%
    03:00 +5°C° 0 mm 1 mps 710 mmHg 94%
    04:00 +4°C° 0 mm 1 mps 710 mmHg 95%
    05:00 +4°C° 0 mm 1 mps 710 mmHg 95%
    06:00 +4°C° 0 mm 1 mps 711 mmHg 95%
    07:00 +4°C° 0 mm 1 mps 711 mmHg 96%
    08:00 +6°C° 0 mm 1 mps 712 mmHg 83%
    09:00 +8°C° 0 mm 1 mps 712 mmHg 69%
    10:00 +10°C° 0 mm 2 mps 713 mmHg 56%
    11:00 +12°C° 0 mm 2 mps 712 mmHg 50%
    12:00 +13°C° 0 mm 2 mps 712 mmHg 43%
    13:00 +14°C° 0 mm 2 mps 712 mmHg 36%
    14:00 +14°C° 0 mm 2 mps 712 mmHg 37%
    15:00 +13°C° 0 mm 2 mps 712 mmHg 38%
    16:00 +12°C° 0 mm 3 mps 711 mmHg 39%
    17:00 +10°C° 0 mm 2 mps 712 mmHg 46%
    18:00 +7°C° 0 mm 2 mps 712 mmHg 53%
    19:00 +6°C° 0 mm 1 mps 713 mmHg 59%
    20:00 +5°C° 0 mm 1 mps 713 mmHg 63%
    21:00 +4°C° 0 mm 1 mps 713 mmHg 66%
    22:00 +3°C° 0 mm 1 mps 714 mmHg 69%
    23:00 +3°C° 0 mm 1 mps 714 mmHg 70%

    25 August, Friday

    Time Temperature Precipitation Wind Pressure Humidity
    00:00 +3°C° 0 mm 1 mps 714 mmHg 72%
    01:00 +2°C° 0 mm 1 mps 714 mmHg 74%
    02:00 +2°C° 0 mm 1 mps 713 mmHg 75%
    03:00 +2°C° 0 mm 1 mps 713 mmHg 77%
    04:00 +1°C° 0 mm 1 mps 713 mmHg 79%
    05:00 +2°C° 0 mm 1 mps 714 mmHg 79%
    06:00 +2°C° 0 mm 1 mps 714 mmHg 79%
    07:00 +2°C° 0 mm 1 mps 714 mmHg 79%
    08:00 +5°C° 0 mm 1 mps 715 mmHg 67%
    09:00 +8°C° 0 mm 1 mps 715 mmHg 55%
    10:00 +12°C° 0 mm 1 mps 715 mmHg 43%
    11:00 +13°C° 0 mm 1 mps 715 mmHg 41%
    12:00 +14°C° 0 mm 2 mps 715 mmHg 38%
    13:00 +15°C° 0 mm 2 mps 714 mmHg 36%
    14:00 +15°C° 0 mm 2 mps 714 mmHg 40%
    15:00 +14°C° 0 mm 2 mps 714 mmHg 43%
    16:00 +13°C° 0 mm 3 mps 713 mmHg 46%
    17:00 +10°C° 0 mm 2 mps 714 mmHg 59%
    18:00 +8°C° 0 mm 2 mps 714 mmHg 71%
    19:00 +6°C° 0 mm 1 mps 714 mmHg 83%
    20:00 +6°C° 0 mm 1 mps 714 mmHg 85%
    21:00 +5°C° 0 mm 1 mps 715 mmHg 88%
    22:00 +4°C° 0 mm 1 mps 715 mmHg 90%
    23:00 +4°C° 0 mm 1 mps 715 mmHg 90%

    26 August, Saturday

    Time Temperature Precipitation Wind Pressure Humidity
    00:00 +4°C° 0 mm 1 mps 715 mmHg 89%
    01:00 +3°C° 0 mm 1 mps 715 mmHg 89%
    02:00 +3°C° 0 mm 1 mps 715 mmHg 89%
    03:00 +3°C° 0 mm 1 mps 714 mmHg 89%
    04:00 +2°C° 0 mm 1 mps 714 mmHg 89%
    05:00 +2°C° 0 mm 1 mps 715 mmHg 89%
    06:00 +2°C° 0 mm 1 mps 715 mmHg 89%
    07:00 +2°C° 0 mm 1 mps 715 mmHg 89%
    08:00 +6°C° 0 mm 1 mps 715 mmHg 77%
    09:00 +9°C° 0 mm 1 mps 716 mmHg 66%
    10:00 +12°C° 0 mm 1 mps 716 mmHg 54%
    11:00 +13°C° 0 mm 1 mps 715 mmHg 50%
    12:00 +14°C° 0 mm 2 mps 715 mmHg 46%
    13:00 +15°C° 0 mm 2 mps 714 mmHg 42%
    14:00 +15°C° 0 mm 2 mps 714 mmHg 44%
    15:00 +13°C° 0 mm 3 mps 714 mmHg 46%
    16:00 +13°C° 0 mm 3 mps 714 mmHg 49%
    17:00 +12°C° 0 mm 2 mps 714 mmHg 62%
    18:00 +8°C° 0 mm 2 mps 714 mmHg 75%
    19:00 +6°C° 0 mm 1 mps 714 mmHg 88%
    20:00 +6°C° 0 mm 1 mps 714 mmHg 90%
    21:00 +5°C° 0 mm 1 mps 715 mmHg 92%
    22:00 +4°C° 0 mm 1 mps 715 mmHg 94%
    23:00 +4°C° 0 mm 1 mps 714 mmHg 95%
    Show more